Location: Bodest
(46.3000°N, 22.5667°E)
Time: 22:31:06
(UTC+00:00)

Cosmos 1844 Rocket - Pass Details

Date: 16 October 2021
Orbit: 826 x 843 km, 71.0° (Epoch: 04 December)

Event Time Altitude Azimuth Distance (km) Brightness Sun altitude
Rises 17:56:09 0° 338° (NNW) 3,378 6.3 -23.9°
Reaches altitude 10° 17:58:50 10° 348° (NNW) 2,440 5.4 -24.4°
Enters shadow 18:02:54 32° 31° (NNE) 1,397 3.6 -25.1°
